{"data":{"norad_id":49295,"epoch":"2026-09-20T00:41:27.030912Z","epoch_age_seconds":48512,"freshness":"FRESH","line1":"1 49295U 21090S   26263.02878508  .00000079  00000+0  16447-3 0  9998","line2":"2 49295  87.9108 286.0761 0002326  91.8317 268.3082 13.19726254238929","mean_motion":13.19726254,"eccentricity":0.0002326,"inclination_deg":87.9108,"raan_deg":286.0761,"arg_perigee_deg":91.8317,"mean_anomaly_deg":268.3082,"bstar":0.00016447,"rev_number":23892,"period_min":109.11353742001,"perigee_km":1184.0063967465,"apogee_km":1187.5251243107,"semimajor_km":7563.9027605286,"source":"CELESTRAK","updated_at":"2026-09-20T09:00:44.671913Z"}}